Showing default

QIANFAN-98, 66040

Orbit data source: Space-Track

QIANFAN-98, 66040 is a Chinese payload satellite in LEO that was launched on Fri, 17 Oct 2025 UTC via a CHANG ZHENG 6A launch vehicle from the Taiyaun Space Center, China (TSC). Payload-class satellites include a variety of spacecraft equipped with specific instruments for various scientific and technological missions. These include communications satellites like Starlink; space stations such as the ISS; scientific satellites like the Hubble; Earth observation satellites from companies like Planet Labs, Umbra, and HawkEye 360; GPS; miniature CubeSats for education and research; and military/defense satellites.

Loading next visibility...
Identifier
66040, 2025-233H
Orbit
LEO
Country
Flag of CNCN / PRC
Related business
Manufacturer
SECM
Mission
Operational Commercial Communications
Bus & Motor
QIANFAN, Unknown motor
Mass
267 kg wet, ~267 kg dry
Launch date (UTC)
2025-10-17 (8 months ago)
Launch vehicle
CHANG ZHENG 6A
Launch site
Taiyaun Space Center, China (TSC)
Object type
Payload
Rocket body
Debris
Shape & HBR
Box + 1 Pan, 14.5 m
Radar Cross Section
13.200 m², Large (>1 m²)

Expand to show TLE details & history
Last TLE update: 21 hours ago

TLE from 21 hours ago
0 QIANFAN-98
1 66040U 25233H   26177.12358205  .00000092  00000-0  12411-3 0  9993
2 66040  88.9989  42.0157 0002376  87.7322 272.4101 13.51013325 34531
Epoch: 2026-06-26T02:57Z
TLE epoch observation values (Epoch: 2026-06-26T02:57:57.489Z)
Latitude
-0.00002°
Longitude
83.26956°
Altitude
1,071.412 km
Speed
7.316 km/s
True Right ascension
02h 48m 03s
True Declination
0° 00' 00"
Sunlit
Object was in daylight at epoch
Visualization orbit readout
Latitude
Unknown
Longitude
Unknown
Altitude
Unknown
Speed
Unknown
Apparent Right ascension
Unknown
Apparent Declination
Unknown
Sunlit
N/A
Visualization observer readout
Local Sidereal Time
10:53:52
Azimuth
Unknown
Elevation
Unknown
Doppler factor
Unknown
Orbital elements
Apogee altitude
1,067.352 km
Perigee altitude
1,063.815 km
Semi-major axis
7,443.721 km
Eccentricity
0.00024
Inclination
88.9989°
RAAN
42.0157°
Arg. of periapsis
87.7322°
True anomaly
272.3829°
Mean anomaly
272.4101°
Eccentric anomaly
272.3965°
Mean motion
3.37954 °/min
Orbital period
106.52 mins
BSTAR
0.00012411
Loading maneuver chart data...
Computing Atmospheric mass density...
Loading historical data...
Loading historical data...
Loading historical data...
Loading historical data...
Loading historical data...
Loading historical data...
Loading historical data...

Documentation

Showing up to 5 results
|